[[{"header":{"parameterUnit":"m.s-1","parameterCategory":1,"la1":30.2991,"la2":30.254,"lo1":-89.0895,"lo2":-89.0444,"dy":0.0017,"dx":0.0017,"nx":28,"ny":28,"refTime":"2025-04-16T09:00:00:Z","depth":0,"parameterNumber":2,"parameterNumberName":"U-component_of_WINDS"},"data":[0,0,0,0,0,0,0,0,0,0,0,0,0,0,0,0,0,0,0,0,0,0,0,0,0,0,0,0,0,0,0,0,0,0,0,0,0,0,0,0,0,0,0,0,0,0,0,0,0,0,0,0,0,0,0,0,0,0,-3.8893,-3.8894,0,-3.9007,-3.9009,-3.901,-3.9011,-3.901,-3.9008,-3.9007,-3.9124,-3.9129,-3.9133,0,0,0,0,0,0,0,0,0,0,0,0,0,-3.8678,-3.8682,-3.8893,-3.8895,-3.8896,-3.9007,-3.9009,-3.901,-3.9011,-3.901,-3.9008,-3.9006,-3.9123,-3.9128,-3.9134,0,0,0,0,0,0,0,0,0,0,0,0,0,-3.878,-3.8683,-3.8893,-3.891,-3.8913,-3.9007,-3.9009,-3.9011,-3.9012,-3.901,-3.9008,-3.9005,-3.9121,-3.9128,-3.9134,-3.9219,0,0,-3.9155,-3.9158,0,0,0,0,0,0,0,0,-3.8774,-3.8788,-3.8906,-3.8909,-3.8912,-3.8993,-3.8976,-3.9081,-3.9012,-3.8974,-3.9007,-3.9004,-3.9082,-3.9092,-3.9118,-3.9225,-3.923,-3.9155,-3.9159,-3.9162,-3.9164,0,0,0,0,0,0,0,-3.8767,-3.8783,-3.8938,-3.8908,-3.8912,-3.8913,-3.8925,-3.8996,-3.9039,-3.8977,-3.8978,-3.8991,-3.9084,-3.9112,-3.9121,-3.9231,-3.9155,-3.9161,-3.9165,-3.9168,-3.9414,-3.9417,0,0,0,0,0,0,-3.8756,-3.8777,-3.8935,-3.8942,-3.8836,-3.8918,-3.8932,-3.8969,-3.9038,-3.9047,-3.8993,-3.8991,-3.9101,-3.9113,-3.9125,-3.9229,-3.9162,-3.9169,-3.9172,-3.9412,-3.9415,-3.9418,0,0,0,0,0,0,-3.8752,-3.877,-3.893,-3.886,-3.888,-3.8924,-3.8966,-3.8973,-3.9001,-3.905,-3.9058,-3.9014,-3.91,-3.9116,-3.9196,-3.9233,-3.9172,-3.9178,-3.9409,-3.9413,-3.9416,-3.9438,0,0,0,0,0,0,-3.8745,-3.8769,-3.8801,-3.886,-3.8884,-3.8998,-3.8969,-3.8976,-3.9012,-3.9011,-3.9072,-3.908,-3.91,-3.9186,-3.9203,-3.9241,-3.9183,-3.9406,-3.9411,-3.9415,-3.9434,-3.9442,-3.9449,0,0,0,0,0,-3.8738,-3.8802,-3.8802,-3.8821,-3.8925,-3.9,-3.9014,-3.9035,-3.9015,-3.9048,-3.908,-3.9078,-3.9227,-3.9194,-3.9213,-3.9254,-3.9403,-3.9409,-3.9415,-3.9431,-3.944,-3.9448,0,0,0,0,0,0,-3.8745,-3.881,-3.8811,-3.8896,-3.8943,-3.9,-3.9042,-3.9045,-3.9098,-3.9094,-3.9119,-3.9133,-3.9213,-3.9242,-3.9204,-3.9341,-3.9313,-3.9323,-3.9318,-3.9328,-3.9335,-3.9326,-3.9188,0,0,0,0,0,-3.8757,-3.8813,-3.8867,-3.8937,-3.896,-3.8998,-3.9031,-3.9044,-3.9093,-3.9113,-3.9151,-3.9199,-3.9257,-3.9294,-3.935,-3.9439,-3.9453,-3.9477,-3.9484,-3.949,-3.9498,-3.9547,-3.9559,-3.9436,-3.9436,-3.9436,0,0,-3.8782,-3.8824,-3.8857,-3.894,-3.8977,-3.9035,-3.9014,-3.9076,-3.9119,-3.9123,-3.92,-3.923,-3.9286,-3.9371,-3.941,-3.9397,-3.9535,-3.9497,-3.9502,-3.9506,-3.9554,-3.9566,-3.9576,-3.944,-3.9439,-3.9439,0,0,-3.8855,-3.8893,-3.8956,-3.8994,-3.9052,-3.9076,-3.9092,-3.915,-3.9169,-3.9248,-3.9253,-3.9305,-3.9404,-3.9444,-3.9477,-3.9568,-3.9568,-3.9586,-3.9624,-3.9672,-3.9682,-3.969,-3.9723,-3.9734,-3.9594,-3.9594,-3.9594,0,-3.8878,-3.8965,-3.8988,-3.905,-3.9086,-3.9093,-3.9157,-3.9194,-3.9267,-3.9292,-3.9277,-3.9402,-3.944,-3.9535,-3.9557,-3.9584,-3.9602,-3.9578,-3.9678,-3.9687,-3.9696,-3.9727,-3.9739,-3.9596,-3.9596,-3.9595,-3.9595,0,-3.899,-3.9051,-3.9095,-3.9165,-3.9207,-3.9269,-3.9303,-3.9342,-3.9352,-3.9379,-3.946,-3.9506,-3.9572,-3.9596,-3.9606,-3.9692,-3.9683,-3.9673,-3.9645,-3.9709,-3.9739,-3.9751,-3.9598,-3.9598,-3.9597,-3.9597,0,0,-3.9069,-3.9153,-3.9169,-3.9201,-3.9266,-3.9314,-3.9378,-3.9442,-3.9476,-3.9527,-3.9581,-3.9666,-3.9658,-3.9696,-3.9711,-3.9753,-3.9823,-3.9739,-3.974,-3.9752,-3.9921,-3.9927,-3.9941,-3.9824,-3.9827,-3.9829,-3.9917,0,-3.915,-3.9263,-3.9286,-3.9384,-3.944,-3.9449,-3.9505,-3.9552,-3.9579,-3.9631,-3.9662,-3.9721,-3.9706,-3.9729,-3.9772,-3.9805,-3.9857,-3.98,-3.9875,-3.9878,-3.9859,-3.9956,-3.9962,-4.0043,-3.9928,-3.993,-3.9932,0,-3.9257,-3.9311,-3.9414,-3.9473,-3.9498,-3.9547,-3.9609,-3.9659,-3.9713,-3.973,-3.9773,-3.9784,-3.9852,-3.9823,-3.9917,-3.9877,-3.991,-3.9932,-3.9935,-3.9942,-3.9907,-3.9965,-4.0069,-4.0081,-3.995,-3.9949,-3.9948,0,-3.9304,-3.9402,-3.9477,-3.9505,-3.9575,-3.961,-3.9641,-3.9693,-3.9731,-3.9785,-3.981,-3.9872,-3.9906,-3.9954,-3.9982,-3.9958,-4.0074,-4.0047,-4.009,-4.0089,-4.0113,-4.011,-4.0223,-4.0136,-4.0136,-4.0136,-4.0135,0,-3.939,-3.9453,-3.9499,-3.9545,-3.9616,-3.9644,-3.9714,-3.9745,-3.9791,-3.9844,-3.9856,-3.9905,-3.994,-3.9995,-4.0017,-4.0092,-4.0107,-4.0123,-4.0128,-4.0121,-4.0119,-4.0142,-4.0137,-4.0139,-4.0138,-4.0137,-4.0137,0,-3.9453,-3.9487,-3.9569,-3.9629,-3.9646,-3.9696,-3.9748,-3.9794,-3.9822,-3.9889,-3.9906,-3.9951,-4.0016,-4.005,-4.0131,-4.0146,-4.023,-4.0232,-4.0212,-4.0213,-4.0255,-4.025,-4.0384,-4.0403,-4.0305,-4.0306,-4.0307,0,-3.9505,-3.9553,-3.962,-3.9656,-3.9688,-3.9746,-3.9785,-3.9815,-3.9855,-3.9921,-3.9958,-4.0024,-4.0078,-4.0182,-4.0222,-4.0285,-4.0288,-4.0331,-4.0297,-4.0289,-4.0288,-4.0284,-4.0289,-4.0336,-4.0337,-4.0338,-4.0339,0,-3.9593,-3.9608,-3.9663,-3.9725,-3.9771,-3.9821,-3.9871,-3.99,-3.9938,-3.9983,-4.005,-4.0092,-4.0175,-4.0241,-4.0307,-4.034,-4.0346,-4.0349,-4.0362,-4.0355,-4.0341,-4.0348,-4.0227,-4.0345,-4.0345,-4.0344,-4.0344,-4.0344,-3.9652,-3.9696,-3.9749,-3.9811,-3.9852,-3.9898,-3.9944,-3.9979,-4.0035,-4.0105,-4.012,-4.019,-4.0245,-4.0334,-4.0369,-4.0426,-4.0417,-4.0436,-4.0441,-4.0444,-4.0446,-4.0333,-4.0438,-4.0438,-4.0438,-4.0438,-4.0437,0,-3.974,-3.9776,-3.9832,-3.9901,-3.995,-3.9953,-4.0008,-4.0049,-4.0111,-4.0161,-4.0214,-4.0292,-4.0356,-4.0402,-4.0467,-4.0504,-4.0508,-4.052,-4.0517,-4.0524,-4.0451,-4.0432,-4.0515,-4.0515,-4.0515,-4.0515,-4.0515,-4.0515,-3.9792,-3.9866,-3.9888,-3.9983,-4.0018,-4.0087,-4.0119,-4.0162,-4.0202,-4.0288,-4.0341,-4.0371,-4.042,-4.049,-4.0549,-4.0561,-4.0584,-4.0595,-4.0608,-4.0538,-4.0529,-4.0521,-4.0504,-4.0601,-4.0601,-4.0676,-4.0677,-4.0678]},{"header":{"parameterUnit":"m.s-1","parameterCategory":1,"la1":30.2991,"la2":30.254,"lo1":-89.0895,"lo2":-89.0444,"dy":0.0017,"dx":0.0017,"nx":28,"ny":28,"refTime":"2025-04-16T09:00:00:Z","depth":0,"parameterNumber":3,"parameterNumberName":"V-component_of_WINDS"},"data":[0,0,0,0,0,0,0,0,0,0,0,0,0,0,0,0,0,0,0,0,0,0,0,0,0,0,0,0,0,0,0,0,0,0,0,0,0,0,0,0,0,0,0,0,0,0,0,0,0,0,0,0,0,0,0,0,0,0,3.5706,3.5706,0,3.5692,3.5692,3.5692,3.5673,3.5673,3.5672,3.5672,3.5654,3.5653,3.5653,0,0,0,0,0,0,0,0,0,0,0,0,0,3.5716,3.5716,3.5706,3.5706,3.5706,3.5692,3.5692,3.5691,3.5673,3.5673,3.5672,3.5672,3.5654,3.5653,3.5653,0,0,0,0,0,0,0,0,0,0,0,0,0,3.5708,3.5716,3.5706,3.5695,3.5694,3.5692,3.5692,3.5691,3.5673,3.5673,3.5672,3.5672,3.5654,3.5653,3.5653,3.566,0,0,3.5652,3.5652,0,0,0,0,0,0,0,0,3.5708,3.5707,3.5697,3.5696,3.5695,3.5684,3.5688,3.5681,3.5673,3.5681,3.5672,3.5672,3.5664,3.5663,3.5661,3.5659,3.5658,3.5652,3.5652,3.5652,3.5652,0,0,0,0,0,0,0,3.5709,3.5708,3.5701,3.5697,3.5695,3.569,3.5689,3.5687,3.5675,3.568,3.5679,3.5678,3.5663,3.5661,3.566,3.5658,3.5652,3.5652,3.5652,3.5651,3.5662,3.5662,0,0,0,0,0,0,3.5711,3.5708,3.5701,3.57,3.5701,3.569,3.5689,3.5688,3.5675,3.5673,3.5678,3.5677,3.5662,3.5661,3.5659,3.5667,3.5652,3.5651,3.5651,3.5662,3.5662,3.5663,0,0,0,0,0,0,3.5712,3.5711,3.5702,3.5704,3.5702,3.5691,3.569,3.5688,3.5686,3.5673,3.5671,3.5678,3.5661,3.566,3.566,3.5666,3.5651,3.5651,3.5661,3.5662,3.5662,3.5682,0,0,0,0,0,0,3.5712,3.5711,3.5714,3.5704,3.5702,3.5703,3.569,3.5688,3.5686,3.5684,3.5673,3.5671,3.5661,3.5661,3.566,3.5665,3.5651,3.566,3.5661,3.5662,3.5681,3.5683,3.5685,0,0,0,0,0,3.5713,3.5719,3.5714,3.5713,3.5706,3.5704,3.5703,3.5692,3.5686,3.5689,3.5681,3.5671,3.5666,3.5661,3.566,3.5665,3.566,3.5661,3.5662,3.5679,3.5683,3.5685,0,0,0,0,0,0,3.5728,3.5717,3.5712,3.5715,3.5711,3.5701,3.5703,3.5696,3.5692,3.569,3.5677,3.5675,3.5677,3.5671,3.5666,3.5672,3.5661,3.5662,3.5675,3.5678,3.568,3.5681,3.565,0,0,0,0,0,3.5732,3.5732,3.5722,3.5726,3.5725,3.5715,3.5713,3.5706,3.57,3.5698,3.569,3.5684,3.5681,3.5679,3.5676,3.568,3.5678,3.5683,3.5686,3.5688,3.5688,3.5691,3.5693,3.5666,3.5666,3.5666,0,0,3.5739,3.5734,3.5734,3.5729,3.5725,3.5725,3.5713,3.5713,3.5713,3.5697,3.5698,3.5692,3.5685,3.5687,3.5688,3.5683,3.5696,3.5689,3.5691,3.569,3.5692,3.5695,3.5697,3.5667,3.5667,3.5667,0,0,3.5753,3.5749,3.5753,3.5749,3.5744,3.5737,3.5738,3.573,3.5726,3.5726,3.5715,3.5715,3.571,3.5705,3.5702,3.5717,3.5708,3.5717,3.5728,3.5731,3.5733,3.5735,3.5741,3.5743,3.5717,3.5718,3.5718,0,3.5763,3.5764,3.5755,3.5757,3.5755,3.5743,3.5747,3.5743,3.5736,3.5735,3.573,3.5725,3.5718,3.572,3.5724,3.5722,3.5723,3.5717,3.5734,3.5736,3.5737,3.5742,3.5745,3.5719,3.5718,3.5718,3.5718,0,3.5777,3.5777,3.578,3.5776,3.5775,3.5777,3.5768,3.5768,3.5762,3.5756,3.5757,3.575,3.5746,3.5746,3.5739,3.5747,3.5744,3.5737,3.5726,3.5741,3.5746,3.5748,3.572,3.572,3.5719,3.5719,0,0,3.5798,3.579,3.5792,3.579,3.5784,3.5784,3.5786,3.5783,3.5783,3.5779,3.5781,3.5778,3.5772,3.5769,3.5761,3.5764,3.5777,3.5756,3.5756,3.576,3.5786,3.5792,3.5794,3.5772,3.5772,3.5772,3.5787,0,3.5811,3.5815,3.5808,3.5813,3.5814,3.5804,3.5806,3.5802,3.5797,3.5797,3.5791,3.579,3.5781,3.5779,3.5782,3.5775,3.5782,3.5774,3.5772,3.5772,3.5774,3.5797,3.5802,3.5816,3.5789,3.5789,3.5789,0,3.5825,3.5824,3.583,3.5825,3.5825,3.5827,3.5825,3.5825,3.5821,3.5817,3.5815,3.5807,3.5809,3.58,3.5802,3.5796,3.5795,3.5792,3.5793,3.5791,3.5781,3.5796,3.582,3.5823,3.5792,3.5792,3.5792,0,3.5841,3.584,3.5844,3.5843,3.5837,3.5839,3.5837,3.5832,3.5832,3.583,3.5829,3.5827,3.5825,3.5823,3.5815,3.5809,3.5819,3.5808,3.5815,3.5815,3.5816,3.5816,3.5841,3.5817,3.5817,3.5817,3.5817,0,3.5855,3.5859,3.5851,3.5854,3.5858,3.5851,3.5855,3.5851,3.5848,3.5849,3.584,3.5841,3.5831,3.5831,3.5825,3.5828,3.5827,3.5824,3.5822,3.5824,3.5825,3.5823,3.5821,3.5817,3.5817,3.5817,3.5817,0,3.5872,3.5867,3.5871,3.5866,3.5865,3.5869,3.5864,3.5866,3.5862,3.5863,3.5863,3.5856,3.5856,3.5848,3.5845,3.5841,3.5847,3.5843,3.5848,3.5847,3.5854,3.5854,3.5878,3.5881,3.5855,3.5856,3.5856,0,3.5882,3.5885,3.5881,3.5882,3.5881,3.5882,3.5882,3.5875,3.5875,3.5872,3.5874,3.5874,3.5873,3.5873,3.5867,3.5865,3.5861,3.587,3.5861,3.5864,3.5861,3.5861,3.5862,3.5872,3.5872,3.5872,3.5873,0,3.5899,3.5897,3.5898,3.5898,3.5899,3.5898,3.5897,3.5898,3.5891,3.5891,3.5892,3.5892,3.589,3.589,3.5888,3.5885,3.5877,3.5876,3.5877,3.5879,3.5883,3.5881,3.5853,3.5875,3.5875,3.5875,3.5874,3.5874,3.5913,3.5916,3.5914,3.5915,3.5914,3.5914,3.5916,3.5913,3.5913,3.5913,3.5909,3.591,3.5907,3.5904,3.5902,3.5902,3.5898,3.59,3.59,3.5901,3.5902,3.5883,3.5902,3.5902,3.5902,3.5902,3.5902,0,3.593,3.5929,3.593,3.593,3.5932,3.5927,3.5925,3.5927,3.5929,3.5927,3.5927,3.5928,3.5928,3.5923,3.5923,3.5924,3.5921,3.5924,3.5924,3.5923,3.5906,3.5905,3.5927,3.5927,3.5927,3.5927,3.5927,3.5927,3.5939,3.5944,3.5942,3.5946,3.5945,3.5947,3.5947,3.5947,3.5946,3.5948,3.5949,3.5946,3.5943,3.5943,3.5943,3.5941,3.5941,3.5946,3.5943,3.5927,3.5924,3.5922,3.5921,3.5946,3.5946,3.596,3.596,3.596]}]]